Regional Weather Roundup
Issued by NWS

Current Version | Previous Version | Text Only | Print | Product List | Glossary On
Versions: 1 2 3 4 5 6 7 8 9 10 11 12 13 14 15 16 17 18 19 20 21 22 23 24 25 26 27 28 29 30 31 32 33 34 35 36 37 38 39 40 41 42 43 44 45 46 47 48 49 50
000
ASUS45 KREV 181910
RWRNV
NEVADA REGIONAL WEATHER ROUNDUP
NATIONAL WEATHER SERVICE RENO NV
1100 AM PST THU DEC 18 2014

NOTE: "FAIR" INDICATES FEW OR NO CLOUDS BELOW 12,000 FEET WITH NO
SIGNIFICANT WEATHER AND/OR OBSTRUCTIONS TO VISIBILITY.

NVZ001-003-004-182000-
WESTERN NEVADA

CITY           SKY/WX    TMP DP  RH WIND       PRES   REMARKS
RENO           CLOUDY    42  29  59 E3        30.17R
CARSON CITY    FAIR      41  25  52 CALM      30.16R
MINDEN         FAIR      39  25  56 CALM      30.17R
SLIDE MTN        N/A     28  25  86 S3          N/A
PYRAMID LAKE     N/A     43 N/A N/A N5          N/A
FALLON         PTSUNNY   46  29  51 S8        30.15R
LOVELOCK       PTSUNNY   44  34  67 W5        30.15R
HAWTHORNE      SUNNY     45  30  57 E8        30.15F
$$

NVZ002-CAZ072-073-182000-
NORTHERN AND CENTRAL SIERRA

CITY           SKY/WX    TMP DP  RH WIND       PRES   REMARKS
S. LAKE TAHOE  MOSUNNY   41  25  53 VRB5      30.14R
TRUCKEE        PTSUNNY   37  28  70 NW6       30.17R
SQUAW VLY 8000   N/A     30  32 100 VRB10       N/A
SUSANVILLE     CLOUDY    41  34  75 E3        30.15
BLUE CANYON    PTSUNNY   38  33  82 CALM      30.18R
MAMMOTH LAKES    N/A     32  23  69 MISG        N/A
BRIDGEPORT     FAIR      36  20  52 CALM      30.10F
$$

NVZ030-031-036-182000-
NORTHERN NEVADA

CITY           SKY/WX    TMP DP  RH WIND       PRES   REMARKS
ELKO           CLOUDY    34  28  79 VRB3      30.14F
WINNEMUCCA     CLOUDY    41  31  67 CALM      30.14S
WENDOVER       CLOUDY    34  27  75 E3        30.17F
$$

NVZ035-037-182000-
CENTRAL NEVADA

CITY           SKY/WX    TMP DP  RH WIND       PRES   REMARKS
ELY            MOSUNNY   37  27  67 VRB3      30.14F
EUREKA           N/A     36  25  64 VRB3      30.15F
$$

NVZ013-014-182000-
SOUTH CENTRAL NEVADA

CITY           SKY/WX    TMP DP  RH WIND       PRES   REMARKS
TONOPAH        SUNNY     37  27  67 CALM      30.17F
$$

NVZ017-020-022-182000-
SOUTHERN NEVADA

CITY           SKY/WX    TMP DP  RH WIND       PRES   REMARKS
LAS VEGAS      PTSUNNY   51  41  68 SW5       30.16F
N. LAS VEGAS   LGT RAIN  49  41  74 SE3       30.19F
NELLIS AFB     PTSUNNY   52  42  69 VRB6      30.19F
HENDERSON      CLOUDY    51  41  68 N3        30.20F
MERCURY        NOT AVBL
$$



USA.gov is the U.S. government's official web portal to all federal, state and local government web resources and services.